Regional Weather Roundup
Issued by NWS New Orleans/Baton Rouge, LA

Home | Current Version | Previous Version | Text Only | Print | Product List | Glossary Off
Versions: 1 2 3 4 5 6 7 8 9 10 11 12 13 14 15 16 17 18 19 20 21 22 23 24 25 26 27 28 29 30 31 32 33 34 35 36 37 38 39 40 41 42 43 44 45 46 47 48 49 50

782
ASUS44 KLIX 302210
RWRLIX
NEW ORLEANS REGIONAL WEATHER ROUNDUP
NATIONAL WEATHER SERVICE NEW ORLEANS LA
500 PM CDT THU OCT 30 2014

NOTE: "FAIR" INDICATES FEW OR NO CLOUDS BELOW 12,000 FEET WITH NO
      SIGNIFICANT WEATHER AND/OR OBSTRUCTIONS TO VISIBILITY.
      SKY/WX - SKY CONDITION AND SIGNIFICANT WEATHER.
      TMP - AIR TEMPERATURE.     DP    - DEWPOINT TEMPERATURE.
      RH  - RELATIVE HUMIDITY.   PRES  - PRESSURE.
      HI  - HEAT INDEX.          WCI   - WIND CHILL INDEX.

*  THESE STATIONS ARE NOT NWS OR FAA STATIONS AND ARE NOT UNDER
   NWS QUALITY CONTROL.

LAZ038-040-048-061>063-065>067-069-302300-
SOUTHEAST LOUISIANA

CITY           SKY/WX    TMP DP  RH WIND       PRES   REMARKS
N.O. AUDUBON     N/A     73 N/A N/A MISG        N/A
N.O. INTL ARPT MOSUNNY   73  40  30 N7        30.03S
N.O. LAKEFRONT SUNNY     71  46  40 W6        30.03S
N.O. DOWNTOWN*   N/A     73  39  29 NE5       30.03S
SLIDELL        SUNNY     75  38  26 N6        30.02S
BATON ROUGE    SUNNY     74  40  29 VRB3      30.04S
BOOTHVILLE     SUNNY     70  49  47 N8        30.02S
BELLE CHASSE   SUNNY     73  40  30 VRB3      30.02S
BOGALUSA*        N/A     74  36  24 N9        30.04S
NEW ROADS*       N/A     73  45  36 NW5       30.05S
GONZALES*        N/A     74  42  31 N5        30.02F
HAMMOND*       SUNNY     75  34  22 N3        30.04F
HOUMA*         SUNNY     73  43  33 NE9       30.02S
PORT FOURCHON* CLEAR     72  50  46 N10       30.05S

$$

MSZ070-080>082-302300-
SOUTHERN MISSISSIPPI

CITY           SKY/WX    TMP DP  RH WIND       PRES   REMARKS
MCCOMB         SUNNY     73  36  25 N7        30.04S
GULFPORT       SUNNY     73  36  25 N9        30.00S
BILOXI         SUNNY     72  40  30 N7        30.00S
PASCAGOULA     SUNNY     72  37  28 N7        30.00S
STENNIS ARPT*  SUNNY     73  28  19 N7        30.01F

$$

COASTAL OBSERVATIONS
LAKE AND NEARSHORE STATIONS

STATION/POSITION TIME  TEMP    WIND        PRES    WAVE
                       AIR SEA DIR/SP/G            HT/PER
                 (UTC) (F)     (DEG/KT/KT) (MB)    (FT/S)
PASCAGOULA       2200   72      10/  6/ 11 1015.4
WAVELAND YACHT   2200   72      10/ 13/ 14 1015.5
GRAND ISLE       2200   72 76   30/  6/ 11 1017.2
SOUTHWEST PASS   2200   82 78              1016.4
NEW CANAL        2200   71 71  270/  3/  4 1017.2
SHELL BEACH      2200   71 69   20/  1/  2 1016.2

OFFSHORE STATIONS

STATION/POSITION TIME  TEMP    WIND        PRES    WAVE
                       AIR SEA DIR/SP/G            HT/PER
                 (UTC) (F)     (DEG/KT/KT) (MB)    (FT/S)
64 S DAUPHIN ISL 2125   70 78   10/ 12/ 16 1016.0    4/ 6

$$




USA.gov is the U.S. government's official web portal to all federal, state and local government web resources and services.